This demonstration page uses our WeatherBlox Daily Observations layout. Learn more.

Left ArrowRight Arrow

Hourly Observations for January 14, 2017

Temp ( °F °C ) Dew Point ( °F °C ) Humidity (%) Winds ( mph kmh ) Pressure ( in mb ) Visibility ( mi km ) Precip ( " mm )
12:14 am 00:14 Mostly Cloudy 41 5 25 -4 53 53 N 6 9 30.68 1039 10 16 N/A
12:34 am 00:34 Mostly Cloudy 41 5 25 -4 53 53 N 3 6 30.68 1039 10 16 N/A
12:54 am 00:54 Mostly Cloudy 41 5 25 -4 53 53 NNE 3 6 30.65 1038 10 16 N/A
1:16 am 01:16 Cloudy 41 5 25 -4 53 53 N N/A 30.68 1039 10 16 N/A
1:34 am 01:34 Cloudy 41 5 27 -3 57 57 N N/A 30.68 1039 10 16 N/A
1:54 am 01:54 Cloudy 41 5 25 -4 53 53 N 5 7 30.68 1039 10 16 N/A
2:14 am 02:14 Cloudy 41 5 25 -4 53 53 N N/A 30.65 1038 10 16 N/A
2:34 am 02:34 Cloudy 41 5 25 -4 53 53 NNE 3 6 30.68 1039 10 16 N/A
2:54 am 02:54 Cloudy 39 4 25 -4 56 56 N 3 6 30.68 1039 10 16 N/A
3:14 am 03:14 Cloudy 39 4 27 -3 61 61 NNE 5 7 30.68 1039 10 16 N/A
3:34 am 03:34 Cloudy 39 4 27 -3 61 61 N N/A 30.65 1038 10 16 N/A
3:54 am 03:54 Cloudy 39 4 27 -3 61 61 N N/A 30.68 1039 10 16 N/A
4:14 am 04:14 Cloudy 39 4 27 -3 61 61 undefined N/A 30.65 1038 10 16 N/A
4:34 am 04:34 Cloudy 39 4 27 -3 61 61 N 5 7 30.65 1038 10 16 N/A
4:54 am 04:54 Cloudy 37 3 27 -3 65 65 N 3 6 30.65 1038 10 16 N/A
5:14 am 05:14 Cloudy 37 3 27 -3 65 65 N 3 6 30.65 1038 10 16 N/A
5:34 am 05:34 Cloudy 37 3 27 -3 65 65 N 7 11 30.65 1038 10 16 N/A
5:54 am 05:54 Cloudy with Drizzle 37 3 27 -3 65 65 NNE 5 7 30.65 1038 10 16 N/A
6:14 am 06:14 Cloudy 37 3 27 -3 65 65 NNE 3 6 30.65 1038 10 16 N/A
6:34 am 06:34 Cloudy 36 2 25 -4 65 65 undefined N/A 30.65 1038 10 16 N/A
6:54 am 06:54 Cloudy 36 2 27 -3 70 70 undefined N/A 30.65 1038 10 16 N/A
7:14 am 07:14 Cloudy 36 2 27 -3 70 70 N N/A 30.62 1037 10 16 N/A
7:34 am 07:34 Cloudy 36 2 27 -3 70 70 WNW 3 6 30.65 1038 10 16 N/A
7:54 am 07:54 Cloudy with Light Rain 36 2 28 -2 75 75 N N/A 30.65 1038 7 11 N/A
8:14 am 08:14 Cloudy with Light Rain 36 2 30 -1 81 81 undefined N/A 30.65 1038 7 11 N/A
8:34 am 08:34 Cloudy with Light Rain 36 2 30 -1 81 81 N N/A 30.65 1038 7 11 N/A
8:55 am 08:55 Cloudy with Light Rain 36 2 32 undefined 87 87 N N/A 30.65 1038 7 11 N/A
9:14 am 09:14 Cloudy with Light Rain 36 2 34 1 93 93 undefined N/A 30.65 1038 3 4 0.02 0.51
9:34 am 09:34 Cloudy with Light Rain 36 2 36 2 100 100 undefined N/A 30.65 1038 4 6 0.03 0.76
9:54 am 09:54 Cloudy with Light Rain 36 2 36 2 100 100 undefined N/A 30.65 1038 5 8 0.03 0.76
10:14 am 10:14 Cloudy with Light Rain 36 2 36 2 100 100 SE 9 15 30.62 1037 3 5 0.01 0.25
10:34 am 10:34 Cloudy with Light Rain 36 2 34 1 93 93 SSE 9 15 30.62 1037 7 11 0.01 0.25
10:54 am 10:54 Cloudy with Light Rain 36 2 34 1 93 93 undefined N/A 30.59 1036 5 8 0.01 0.25
11:14 am 11:14 Cloudy with Light Rain 36 2 34 1 93 93 SSE 8 13 30.59 1036 7 11 N/A
11:34 am 11:34 Cloudy with Light Rain 36 2 34 1 93 93 SSE 7 11 30.56 1035 5 8 N/A
11:54 am 11:54 Cloudy with Light Rain 36 2 36 2 100 100 undefined N/A 30.56 1035 4 6 N/A
12:34 pm 12:34 Cloudy with Light Rain 36 2 36 2 100 100 undefined N/A 30.53 1034 2 3 0.02 0.51
12:54 pm 12:54 Cloudy with Light Rain 36 2 36 2 100 100 undefined N/A 30.53 1034 5 8 0.03 0.76
1:15 pm 13:15 Cloudy with Light Rain 36 2 36 2 100 100 undefined N/A 30.53 1034 7 11 N/A
1:34 pm 13:34 Cloudy with Light Rain 36 2 36 2 100 100 undefined N/A 30.50 1033 7 11 N/A
1:54 pm 13:54 Cloudy 36 2 36 2 100 100 undefined N/A 30.48 1032 7 11 N/A
2:14 pm 14:14 Cloudy with Light Rain 36 2 36 2 100 100 undefined N/A 30.48 1032 10 16 N/A
2:34 pm 14:34 Cloudy 36 2 36 2 100 100 undefined N/A 30.48 1032 10 16 N/A
2:54 pm 14:54 Cloudy 36 2 36 2 100 100 undefined N/A 30.48 1032 10 16 N/A
3:14 pm 15:14 Cloudy 36 2 36 2 100 100 undefined N/A 30.48 1032 10 16 N/A
3:34 pm 15:34 Cloudy with Light Rain 36 2 36 2 100 100 undefined N/A 30.45 1031 5 8 0.01 0.25
3:54 pm 15:54 Cloudy with Light Rain 36 2 36 2 100 100 undefined N/A 30.45 1031 4 6 0.01 0.25
4:14 pm 16:14 Cloudy with Light Rain 36 2 36 2 100 100 undefined N/A 30.45 1031 5 8 N/A
4:34 pm 16:34 Cloudy with Light Rain 36 2 36 2 100 100 undefined N/A 30.45 1031 4 6 0.01 0.25
4:54 pm 16:54 Cloudy with Light Rain 36 2 36 2 100 100 N N/A 30.45 1031 5 8 0.02 0.51
5:14 pm 17:14 Cloudy with Light Rain 36 2 36 2 100 100 undefined N/A 30.45 1031 5 8 0.01 0.25
5:34 pm 17:34 Cloudy with Light Rain 36 2 36 2 100 100 SE 5 7 30.45 1031 4 6 0.02 0.51
5:54 pm 17:54 Cloudy with Light Rain 36 2 36 2 100 100 SE 3 6 30.42 1030 4 6 0.04 1.02
6:14 pm 18:14 Cloudy with Light Rain 36 2 36 2 100 100 SE 7 11 30.42 1030 5 8 0.01 0.25
6:34 pm 18:34 Cloudy with Light Rain 36 2 36 2 100 100 SSE 6 9 30.42 1030 5 8 0.03 0.76
6:54 pm 18:54 Cloudy with Light Rain 36 2 36 2 100 100 undefined N/A 30.42 1030 5 8 0.04 1.02
7:14 pm 19:14 Cloudy with Light Rain 36 2 36 2 100 100 N N/A 30.42 1030 5 8 N/A
7:34 pm 19:34 Cloudy with Light Rain 36 2 36 2 100 100 N N/A 30.42 1030 5 8 N/A
7:54 pm 19:54 Cloudy with Light Rain 36 2 36 2 100 100 N N/A 30.42 1030 5 8 0.01 0.25
8:14 pm 20:14 Cloudy with Light Rain 36 2 36 2 100 100 N N/A 30.39 1029 5 8 N/A
8:34 pm 20:34 Cloudy with Light Rain 36 2 36 2 100 100 undefined N/A 30.39 1029 5 8 N/A
8:54 pm 20:54 Cloudy with Mist and Fog 36 2 36 2 100 100 N N/A 30.39 1029 5 8 N/A
9:14 pm 21:14 Cloudy with Mist and Fog 36 2 36 2 100 100 SE 5 7 30.36 1028 4 6 N/A
9:34 pm 21:34 Cloudy with Mist and Fog 36 2 36 2 100 100 NNE 5 7 30.39 1029 4 6 N/A
9:54 pm 21:54 Cloudy with Mist and Fog 37 3 37 3 100 100 N 5 7 30.39 1029 4 6 N/A
10:14 pm 22:14 Cloudy with Mist and Fog 36 2 36 2 100 100 N 5 7 30.39 1029 3 5 N/A
10:34 pm 22:34 Cloudy with Light Rain 36 2 36 2 100 100 NNE 5 7 30.39 1029 3 4 N/A
10:54 pm 22:54 Cloudy with Mist and Fog 36 2 36 2 100 100 N N/A 30.39 1029 3 5 N/A
11:14 pm 23:14 Cloudy with Mist and Fog 36 2 36 2 100 100 N N/A 30.39 1029 3 4 N/A
11:34 pm 23:34 Cloudy with Mist and Fog 36 2 36 2 100 100 N N/A 30.36 1028 2 3 N/A
11:54 pm 23:54 Cloudy with Mist and Fog 36 2 36 2 100 100 N N/A 30.36 1028 1 2 N/A

Powered by AerisWeather